Time,TemperatureF,DewpointF,PressureIn,WindDirection,WindDirectionDegrees,WindSpeedMPH,WindSpeedGustMPH,Humidity,HourlyPrecipIn,Conditions,Clouds,dailyrainin,SoftwareType,DateUTC
2013-02-28 00:07:00,52.0,44.0,30.25,North,0,0.0,-999.0,74,0.00,,,0.00,open2300 v1.10,2013-02-28 08:07:00,
2013-02-28 00:21:00,51.8,43.8,30.25,North,0,0.0,-999.0,74,0.00,,,0.00,open2300 v1.10,2013-02-28 08:21:00,
2013-02-28 00:36:00,51.8,43.8,30.25,North,0,0.0,-999.0,74,0.00,,,0.00,open2300 v1.10,2013-02-28 08:36:00,
2013-02-28 00:51:00,51.8,43.8,30.25,North,0,0.0,-999.0,74,0.00,,,0.00,open2300 v1.10,2013-02-28 08:51:00,
2013-02-28 01:07:00,51.8,43.8,30.25,North,0,0.0,-999.0,74,0.00,,,0.00,open2300 v1.10,2013-02-28 09:07:00,
2013-02-28 01:21:00,52.0,44.0,30.25,North,0,0.0,-999.0,74,0.00,,,0.00,open2300 v1.10,2013-02-28 09:21:00,
2013-02-28 01:36:00,52.0,44.0,30.25,North,0,0.0,-999.0,74,0.00,,,0.00,open2300 v1.10,2013-02-28 09:36:00,
2013-02-28 01:51:00,52.2,44.1,30.26,North,0,0.0,-999.0,74,0.00,,,0.00,open2300 v1.10,2013-02-28 09:51:00,
2013-02-28 02:07:00,52.0,44.3,30.26,North,0,0.0,-999.0,75,0.00,,,0.00,open2300 v1.10,2013-02-28 10:07:00,
2013-02-28 02:21:00,52.0,44.3,30.25,North,0,0.0,-999.0,75,0.00,,,0.00,open2300 v1.10,2013-02-28 10:21:00,
2013-02-28 02:36:00,52.0,44.3,30.25,North,0,0.0,-999.0,75,0.00,,,0.00,open2300 v1.10,2013-02-28 10:36:00,
2013-02-28 02:51:00,52.0,44.3,30.25,North,0,0.0,-999.0,75,0.00,,,0.00,open2300 v1.10,2013-02-28 10:51:00,
2013-02-28 03:07:00,52.2,44.5,30.25,North,0,0.0,-999.0,75,0.00,,,0.00,open2300 v1.10,2013-02-28 11:07:00,
2013-02-28 03:21:00,52.0,44.3,30.25,North,0,0.0,-999.0,75,0.00,,,0.00,open2300 v1.10,2013-02-28 11:21:00,
2013-02-28 03:36:00,51.8,44.2,30.25,North,0,0.0,-999.0,75,0.00,,,0.00,open2300 v1.10,2013-02-28 11:36:00,
2013-02-28 03:51:00,51.6,44.0,30.25,North,0,0.0,-999.0,75,0.00,,,0.00,open2300 v1.10,2013-02-28 11:51:00,
2013-02-28 04:07:00,51.6,44.0,30.25,North,0,0.0,-999.0,75,0.00,,,0.00,open2300 v1.10,2013-02-28 12:07:00,
2013-02-28 04:21:00,51.4,43.8,30.25,North,0,0.0,-999.0,75,0.00,,,0.00,open2300 v1.10,2013-02-28 12:21:00,
2013-02-28 04:36:00,51.4,43.8,30.25,North,0,0.0,-999.0,75,0.00,,,0.00,open2300 v1.10,2013-02-28 12:36:00,
2013-02-28 04:51:00,51.4,43.8,30.25,North,0,0.0,-999.0,75,0.00,,,0.00,open2300 v1.10,2013-02-28 12:51:00,
2013-02-28 05:07:00,51.4,43.8,30.26,North,0,0.0,-999.0,75,0.00,,,0.00,open2300 v1.10,2013-02-28 13:07:00,
2013-02-28 05:21:00,51.3,44.0,30.26,North,0,0.0,-999.0,76,0.00,,,0.00,open2300 v1.10,2013-02-28 13:21:00,
2013-02-28 05:36:00,51.1,43.8,30.27,North,0,0.0,-999.0,76,0.00,,,0.00,open2300 v1.10,2013-02-28 13:36:00,
2013-02-28 05:51:00,51.1,43.8,30.27,North,0,0.0,-999.0,76,0.00,,,0.00,open2300 v1.10,2013-02-28 13:51:00,
2013-02-28 06:07:00,51.1,44.1,30.28,North,0,0.0,-999.0,77,0.00,,,0.00,open2300 v1.10,2013-02-28 14:07:00,
2013-02-28 06:21:00,51.4,44.1,30.28,North,0,0.0,-999.0,76,0.00,,,0.00,open2300 v1.10,2013-02-28 14:21:00,
2013-02-28 06:36:00,51.4,44.5,30.28,North,0,0.0,-999.0,77,0.00,,,0.00,open2300 v1.10,2013-02-28 14:36:00,
2013-02-28 06:51:00,51.6,44.7,30.28,North,0,0.0,-999.0,77,0.00,,,0.00,open2300 v1.10,2013-02-28 14:51:00,
2013-02-28 07:06:00,51.8,44.8,30.29,North,0,0.0,-999.0,77,0.00,,,0.00,open2300 v1.10,2013-02-28 15:06:00,
2013-02-28 07:21:00,52.2,45.2,30.29,North,0,0.0,-999.0,77,0.00,,,0.00,open2300 v1.10,2013-02-28 15:21:00,
2013-02-28 07:36:00,52.5,45.5,30.29,North,0,0.0,-999.0,77,0.00,,,0.00,open2300 v1.10,2013-02-28 15:36:00,
2013-02-28 07:51:00,52.9,45.9,30.30,North,0,0.0,-999.0,77,0.00,,,0.00,open2300 v1.10,2013-02-28 15:51:00,
2013-02-28 08:06:00,53.4,46.4,30.30,North,0,0.0,-999.0,77,0.00,,,0.00,open2300 v1.10,2013-02-28 16:06:00,
2013-02-28 08:21:00,53.8,46.4,30.31,North,0,0.0,-999.0,76,0.00,,,0.00,open2300 v1.10,2013-02-28 16:21:00,
2013-02-28 08:36:00,53.8,46.4,30.31,North,0,0.0,-999.0,76,0.00,,,0.00,open2300 v1.10,2013-02-28 16:36:00,
2013-02-28 08:51:00,54.0,46.5,30.32,North,0,0.0,-999.0,76,0.00,,,0.00,open2300 v1.10,2013-02-28 16:51:00,
2013-02-28 09:06:00,54.1,47.1,30.33,North,0,0.0,-999.0,77,0.00,,,0.00,open2300 v1.10,2013-02-28 17:06:00,
2013-02-28 09:21:00,54.3,47.2,30.33,North,0,0.0,-999.0,77,0.00,,,0.00,open2300 v1.10,2013-02-28 17:21:00,
2013-02-28 09:36:00,54.9,47.8,30.33,North,0,0.0,-999.0,77,0.00,,,0.00,open2300 v1.10,2013-02-28 17:36:00,
2013-02-28 09:51:00,55.2,48.1,30.32,North,0,0.0,-999.0,77,0.00,,,0.00,open2300 v1.10,2013-02-28 17:51:00,
2013-02-28 10:06:00,55.6,48.1,30.32,North,0,0.0,-999.0,76,0.00,,,0.00,open2300 v1.10,2013-02-28 18:06:00,
2013-02-28 10:21:00,55.8,48.2,30.33,North,0,0.0,-999.0,76,0.00,,,0.00,open2300 v1.10,2013-02-28 18:21:00,
2013-02-28 10:36:00,55.9,48.4,30.32,North,0,0.0,-999.0,76,0.00,,,0.00,open2300 v1.10,2013-02-28 18:36:00,
2013-02-28 10:51:00,56.1,48.6,30.32,North,0,0.0,-999.0,76,0.00,,,0.00,open2300 v1.10,2013-02-28 18:51:00,
2013-02-28 11:06:00,56.3,48.8,30.31,North,0,0.0,-999.0,76,0.00,,,0.00,open2300 v1.10,2013-02-28 19:06:00,
2013-02-28 11:21:00,56.8,49.3,30.31,North,0,0.0,-999.0,76,0.00,,,0.00,open2300 v1.10,2013-02-28 19:21:00,
2013-02-28 11:36:00,57.2,49.6,30.31,North,0,0.0,-999.0,76,0.00,,,0.00,open2300 v1.10,2013-02-28 19:36:00,
2013-02-28 11:51:00,57.7,50.2,30.31,North,0,0.0,-999.0,76,0.00,,,0.00,open2300 v1.10,2013-02-28 19:51:00,
2013-02-28 12:06:00,57.7,49.8,30.31,North,0,0.0,-999.0,75,0.00,,,0.00,open2300 v1.10,2013-02-28 20:06:00,
2013-02-28 12:21:00,57.4,49.5,30.31,North,0,0.0,-999.0,75,0.00,,,0.00,open2300 v1.10,2013-02-28 20:21:00,
2013-02-28 12:36:00,57.0,49.1,30.31,North,0,0.0,-999.0,75,0.00,,,0.00,open2300 v1.10,2013-02-28 20:36:00,
2013-02-28 12:51:00,57.0,49.1,30.30,North,0,0.0,-999.0,75,0.00,,,0.00,open2300 v1.10,2013-02-28 20:51:00,
2013-02-28 13:06:00,57.4,49.5,30.30,North,0,0.0,-999.0,75,0.00,,,0.00,open2300 v1.10,2013-02-28 21:06:00,
2013-02-28 13:21:00,57.7,49.5,30.28,North,0,0.0,-999.0,74,0.00,,,0.00,open2300 v1.10,2013-02-28 21:21:00,
2013-02-28 13:36:00,58.3,50.0,30.28,North,0,0.0,-999.0,74,0.00,,,0.00,open2300 v1.10,2013-02-28 21:36:00,
2013-02-28 13:51:00,57.9,49.6,30.28,North,0,0.0,-999.0,74,0.00,,,0.00,open2300 v1.10,2013-02-28 21:51:00,
2013-02-28 14:06:00,57.4,49.1,30.28,North,0,0.0,-999.0,74,0.00,,,0.00,open2300 v1.10,2013-02-28 22:06:00,
2013-02-28 14:21:00,57.0,49.1,30.28,North,0,0.0,-999.0,75,0.00,,,0.00,open2300 v1.10,2013-02-28 22:21:00,
2013-02-28 14:36:00,57.4,49.5,30.28,North,0,0.0,-999.0,75,0.00,,,0.00,open2300 v1.10,2013-02-28 22:36:00,
2013-02-28 14:51:00,57.6,49.3,30.27,North,0,0.0,-999.0,74,0.00,,,0.00,open2300 v1.10,2013-02-28 22:51:00,
2013-02-28 15:06:00,57.2,48.9,30.28,North,0,0.0,-999.0,74,0.00,,,0.00,open2300 v1.10,2013-02-28 23:06:00,
2013-02-28 15:21:00,57.0,48.7,30.27,North,0,0.0,-999.0,74,0.00,,,0.00,open2300 v1.10,2013-02-28 23:21:00,
2013-02-28 15:36:00,57.4,49.1,30.28,North,0,0.0,-999.0,74,0.00,,,0.00,open2300 v1.10,2013-02-28 23:36:00,
2013-02-28 15:51:00,57.9,49.6,30.27,North,0,0.0,-999.0,74,0.00,,,0.00,open2300 v1.10,2013-02-28 23:51:00,
2013-02-28 16:06:00,58.3,50.0,30.26,North,0,0.0,-999.0,74,0.00,,,0.00,open2300 v1.10,2013-03-01 00:06:00,
2013-02-28 16:21:00,58.8,50.5,30.26,North,0,0.0,-999.0,74,0.00,,,0.00,open2300 v1.10,2013-03-01 00:21:00,
2013-02-28 16:36:00,59.4,50.7,30.26,North,0,0.0,-999.0,73,0.00,,,0.00,open2300 v1.10,2013-03-01 00:36:00,
2013-02-28 16:51:00,59.7,50.7,30.26,North,0,0.0,-999.0,72,0.00,,,0.00,open2300 v1.10,2013-03-01 00:51:00,
2013-02-28 17:06:00,59.7,50.4,30.26,North,0,0.0,-999.0,71,0.00,,,0.00,open2300 v1.10,2013-03-01 01:06:00,
2013-02-28 17:21:00,59.7,50.4,30.27,North,0,0.0,-999.0,71,0.00,,,0.00,open2300 v1.10,2013-03-01 01:21:00,
2013-02-28 17:36:00,58.8,49.8,30.26,North,0,0.0,-999.0,72,0.00,,,0.00,open2300 v1.10,2013-03-01 01:36:00,
2013-02-28 17:51:00,58.5,49.5,30.26,North,0,0.0,-999.0,72,0.00,,,0.00,open2300 v1.10,2013-03-01 01:51:00,
2013-02-28 18:06:00,57.0,48.4,30.26,North,0,0.0,-999.0,73,0.00,,,0.00,open2300 v1.10,2013-03-01 02:06:00,
2013-02-28 18:21:00,56.1,47.9,30.26,North,0,0.0,-999.0,74,0.00,,,0.00,open2300 v1.10,2013-03-01 02:21:00,
2013-02-28 18:36:00,55.6,47.7,30.27,North,0,0.0,-999.0,75,0.00,,,0.00,open2300 v1.10,2013-03-01 02:36:00,
2013-02-28 18:51:00,55.0,47.6,30.28,North,0,0.0,-999.0,76,0.00,,,0.00,open2300 v1.10,2013-03-01 02:51:00,
2013-02-28 19:06:00,54.5,47.4,30.28,North,0,0.0,-999.0,77,0.00,,,0.00,open2300 v1.10,2013-03-01 03:06:00,
2013-02-28 19:21:00,54.1,47.1,30.28,North,0,0.0,-999.0,77,0.00,,,0.00,open2300 v1.10,2013-03-01 03:21:00,
2013-02-28 19:36:00,53.8,46.7,30.29,North,0,0.0,-999.0,77,0.00,,,0.00,open2300 v1.10,2013-03-01 03:36:00,
2013-02-28 19:51:00,53.4,46.4,30.29,North,0,0.0,-999.0,77,0.00,,,0.00,open2300 v1.10,2013-03-01 03:51:00,
2013-02-28 20:06:00,53.4,46.4,30.30,North,0,0.0,-999.0,77,0.00,,,0.00,open2300 v1.10,2013-03-01 04:06:00,
2013-02-28 20:21:00,53.4,46.8,30.29,North,0,0.0,-999.0,78,0.00,,,0.00,open2300 v1.10,2013-03-01 04:21:00,
2013-02-28 20:36:00,53.2,46.9,30.30,North,0,0.0,-999.0,79,0.00,,,0.00,open2300 v1.10,2013-03-01 04:36:00,
2013-02-28 20:51:00,53.2,46.9,30.29,North,0,0.0,-999.0,79,0.00,,,0.00,open2300 v1.10,2013-03-01 04:51:00,
2013-02-28 21:06:00,53.2,46.9,30.30,North,0,0.0,-999.0,79,0.00,,,0.00,open2300 v1.10,2013-03-01 05:06:00,
2013-02-28 21:21:00,53.2,47.3,30.30,North,0,0.0,-999.0,80,0.00,,,0.00,open2300 v1.10,2013-03-01 05:21:00,
2013-02-28 21:36:00,53.1,47.1,30.30,North,0,0.0,-999.0,80,0.00,,,0.00,open2300 v1.10,2013-03-01 05:36:00,
2013-02-28 21:51:00,52.9,46.9,30.31,North,0,0.0,-999.0,80,0.00,,,0.00,open2300 v1.10,2013-03-01 05:51:00,
2013-02-28 22:06:00,52.9,46.9,30.31,North,0,0.0,-999.0,80,0.00,,,0.00,open2300 v1.10,2013-03-01 06:06:00,
2013-02-28 22:21:00,52.7,46.8,30.31,North,0,0.0,-999.0,80,0.00,,,0.00,open2300 v1.10,2013-03-01 06:21:00,
2013-02-28 22:36:00,52.5,46.6,30.31,North,0,0.0,-999.0,80,0.00,,,0.00,open2300 v1.10,2013-03-01 06:36:00,
2013-02-28 22:51:00,52.3,46.4,30.31,North,0,0.0,-999.0,80,0.00,,,0.00,open2300 v1.10,2013-03-01 06:51:00,
2013-02-28 23:06:00,52.3,46.0,30.31,North,0,0.0,-999.0,79,0.00,,,0.00,open2300 v1.10,2013-03-01 07:06:00,
2013-02-28 23:21:00,52.2,45.9,30.31,North,0,0.0,-999.0,79,0.00,,,0.00,open2300 v1.10,2013-03-01 07:21:00,
2013-02-28 23:36:00,52.2,45.9,30.31,North,0,0.0,-999.0,79,0.00,,,0.00,open2300 v1.10,2013-03-01 07:36:00,
2013-02-28 23:51:00,52.2,45.9,30.31,North,0,0.0,-999.0,79,0.00,,,0.00,open2300 v1.10,2013-03-01 07:51:00,